Race Results for
MSC #7, Keystone Classic
Keystone, CO
(Event Information)
Downhill on 07/24/2011

Note: Ranking points are NOT upgrade points. An explanation of ranking points can be found here.


Men - Cat 1/2/3 - 1-10

 Place Points NameCity, StateTime USAC #BibTeam
1Trent Del Grippo   Golden, CO12:13.99 314386  650 aCOS / G-Force

Men - Cat 1/2/3 - 11-12

 Place Points NameCity, StateTime USAC #BibTeam
1540.00Fuel Macrae   Fort Collins, CO12:24.95 300360  632 
2Griffen Chabot   13:48.21  523 
3Liam Wilcox   19:08.11  755 

Men - Cat 1/2/3 - 13-14

 Place Points NameCity, StateTime USAC #BibTeam
1442.71Tyler Spence   Carbondale, CO9:17.48 248811  584 Banshee / Geronimo
2460.41Wyatt Freier   Castle Rock, CO9:50.07 309949  514 RPM/Yeti
3478.11Samuel Beauchamp   Phoenix, AZ9:55.20 320504  575 
4495.81Dan Strangfeld   Parker, CO10:18.36 329726  748 Mojo Wheels
5513.51Cole Hengeveld   Flagstaff, AZ10:28.07 367375  813 Nothland Motorsports
6531.21Quintin Kurtz   Evergreen, CO11:50.46 259184  662 Mojo Wheels
7Tanner Christopherson   12:02.85  617 
8Chad Forsett   12:35.54  616 
9Nicholas Haller   13:21.70  675 
DNSSawyer Cousineau   Tabernash, CODNS 282736  610 Sol Vista
DNSJack Bell   DNS  615 

Men - CAT 3 - 15-18

 Place Points NameCity, StateTime USAC #BibTeam
1458.77Gavin Gargiulo   Colorado Springs, CO9:54.43 353172  528 Stratical Solutions
2466.06Patrick O'Connell   Winter Park, CO10:13.52 283505  844 Grand Sports
3473.35Zach Graveson   Pagosa Springs, CO10:14.85 350876  621 Pedal and Powder
4480.64Josh Palmer   Gunnison, CO10:23.28 318752  698 
5487.93Jayce Heatley   Amarillo, TX10:28.42 298984  593 Oneghost Industries
6495.22Mitch McFee   Pueblo, CO10:30.72 351946  535 ODI / Azonic-Leatt / IXS Sports Division
7Alec Di Lorenzo   10:37.18  576 Pedal Pushers Cyclery
8509.80Lane Speas   Castle Rock, CO10:43.85 293713  598 Mojo Wheels
9517.09Forrest Simpson   Longmont, CO10:46.68 317338  746 
10524.38Roscoe O'Donnell   Longmont, CO10:47.56 309804  628 Mojo Wheels
11531.67Josh Wisda   Littleton, CO10:47.60 353718  677 
12Alex Bloomfield   10:48.81  695 Totally Wired
13546.25Luke Shepherd   Littleton, CO10:52.34 317372  689 Mojo Wheels
14Justin Hall   10:55.67  566 
15Banks Kriz   11:01.70  648 Sol vista bike park
16568.12Colin Hornock   Centennial, CO11:16.85 297119  519 Alpha Bicyle Company
17575.41Grayson Richey   Colorado Springs, CO11:29.06 343688  588 Mojo Wheels
18582.70Randy Burbidge   Glenwood Springs, CO11:44.40 315572  631 NEMA/ODI/Leatt
19589.99Connor Hesen   Littleton, CO12:21.92 309703  828 Mojo Wheels
DNSSkyler Anderson   Granby, CODNS 321464  721 Team Solvista

Men - CAT 3 - 19-29

 Place Points NameCity, StateTime USAC #BibTeam
1Antonio Gonzalez Zapata   9:54.64  557 
2462.03Jeremy Kuntz   Loveland, CO9:57.52 320248  853 Snap-on Tools
3Spencer Huso   10:30.33  682 Alpha Bicycle Company
4Steve Wagner   10:40.30  625 
5500.43Jeff Surdo   Woodland Park, CO10:42.04 280793  840 Team Telecycle
6513.23Nick Mullen   Arvada, CO11:15.31 286530  606 Kozos
7Jason Adams   11:26.48  835 
8Patrick Bryce   11:29.45  560 
9Daniel McGlynn   11:33.89  720 
10Adam Jaberi   11:51.60  555 Lucky's Roadhouse/Team Smokers
11Scott Reagan   12:40.16  556 Lucky's Roadhouse/Team Smokers
12Mike Watrobka   14:19.36  673 
DNSRyan Towne   DNS  504 Golden Bike Shop

Men - CAT 3 - 30-99

 Place Points NameCity, StateTime USAC #BibTeam
1Joshua Francis   10:04.05  614 Ruby Canyon Cycles
2Joe Kuzemchak   10:31.21  690 
3Darin Carville   10:46.90  636 Ruby Canyon Cycles
4Daniel St. John   11:11.16  823 Mojo Wheels
5578.34Doug Strangfeld   Parker, CO12:27.79 329908  774 Mojo Wheels
6590.00Jason Adkisson   Castle Rock, CO12:37.87 296867  536 

Men - CAT 2 - 15-18

 Place Points NameCity, StateTime USAC #BibTeam
1389.12Oliver Vowel   Dillon, CO8:44.36 298244  527 Wolf Rock Cycling
2392.33Robert Pettit   Basalt, CO9:13.79 267136  515 Team Geronimo
3395.54Cole Shepherd   Littleton, CO9:16.87 307404  688 Mojo Wheels
4398.75Ben Weger   Englewood, CO9:17.95 287114  691 Mojo Wheels
5401.96Bryce Hermanussen   Golden, CO9:27.54 318756  778 Pedal Pusher Cyclery
6405.17Ben Robinson   Centennial, CO9:34.93 286829  600 Mojo Wheels
7Byron Brane   9:43.67  789 
8411.59Bennett Colburn   Golden, CO9:44.59 315984  739 Pedal Pushers Cyclery
9414.80Jon Lindner   Longmont, CO9:47.95 298231  779 
10418.01Josh Lambert   Centennial, CO9:50.34 286155  581 aCOS
DNSJacob Branney   Boulder, CODNS 219375  508 Aloha Mtn Cycles
DNSBen Shay   Evergreen, CODNS 315608  526 aCOS
DNSAndrew Garner   Rio Rancho, NMDNS 319400  529 
DNSHunter Eggers   DNS  550 
DNSZachary Proctor   Centennial, CODNS 289154  660 aCOS
DNSSean Geisler   Salida, CODNS 213901  765 yeti rpm

Men - CAT 2 - 19-29

 Place Points NameCity, StateTime USAC #BibTeam
1Shilo Marquez   9:00.50  785 
2Pete Maiman   9:17.85  658 
3Corey Carlson   9:26.40  829 Adventurecycle.net
4340.31Linton Judycki   Red River, NM9:27.89 353484  793 
5Bruce Browning   9:36.40  837 
6348.77Matthew Wells   Greeley, CO9:38.87 322556  567 aCOS
7Chris Larson   9:40.95  799 
8357.23Erich Ward   Colorado Springs, CO9:46.96 275334  771 Hybrosec
9361.46William Beilke   Aurora, CO9:51.22 267179  683 mojo wheels
10365.69Brendan Gibbs   Salida, CO9:55.46 317412  831 S town rowdies
11369.92Brendan Smith   Boulder, CO9:56.61 247716  770 Terminal Velocity Racing
12Tom Bjornson   10:00.93  735 Bonesaw
13378.38Will Montague   Denver, CO10:07.89 322558  849 Guerrilla Gravity
14382.61James Helmer   Salida, CO10:10.52 319658  538 Monarch Mountain
15386.84Brandon Olson   Libertyville, IL10:14.22 191385  561 Higher Gear Wilmette
16Randy Rudel   10:25.60  546 
17395.30Jeremy Schwartz   Golden, CO10:37.03 296226  594 
18John McKinstry   10:50.84  670 Kozos
19403.76Mark Peterson   Fort Collins, CO11:19.77 335252  517 
20407.99Austen Bailey   Centennial, CO11:20.85 299150  745 
21412.22Mark Bourget   Golden, CO13:22.96 357511  679 Albritton Outfitters
22416.45Eric Newell   Fort Collins, CO13:32.97 261895  687 Peloton Cycles
23Russell Rudel   16:41.81  541 
DNSJohn Rupp   Denver, CODNS 317010  516 Guerilla Gravity
DNSJimmy Vonesh   Minturn, CODNS 339174  618 Taktikel Racing/Progressive Trail Designs

Men - CAT 2 - 30-39

 Place Points NameCity, StateTime USAC #BibTeam
1377.76Eon Jarvis   Denver, CO9:26.25 326612  635 Salt Cycles
2Evan Friedman   9:36.84  791 
3397.16Phillip Stevens   Leadville, CO9:37.83 34096  537 Colorado Custom Wood Floors
4Chad Forte   9:49.31  692 
5416.56Evan Chute   Golden, CO10:16.26 180833  751 RPM/Yeti
6Julio Lopez   10:17.21  858 Mojo Wheels
7435.96Joshua Swanke   Grand Lake, CO10:25.08 298253  754 Totally Wired Cyclery
8445.66Moises Alarcon   Thornton, CO10:27.83 79633  500 Stirring Earth
9455.36Taylor Shull   Golden, CO10:28.33 32569  633 Pedal pushers
10465.06Robert Gerwing   Golden, CO10:35.57 316608  731 aCOS
11474.76Jason Krause   Palmer Lake, CO10:38.37 268242  607 Neverest
12Thomas Rodriguez   10:41.82  645 Fat Tire Cycles
13Douglas Hawks   11:03.90  578 
14503.86Christopher Taylor   Colorado Springs, CO11:15.81 247957  664 Neverest Racing
15513.56Erik Long   Coloradosprings, CO11:21.70 292977  815 flibye racing
16523.26Matt Parke   Denver, CO12:10.11 278454  657 Neverest
17Josh Cook   13:06.57  796 Neverest
DNSAndy Demaline   DNS  764 

Men - CAT 2 - 40-99

 Place Points NameCity, StateTime USAC #BibTeam
1397.56Ryan Steele   Lakewood, CO9:26.42 349504  532 aCOS
2414.91Richard OConnor   Albuquerque, NM10:20.06 318054  643 Canfield Bros.
3432.26Michael Lees   Denver, CO10:57.91 263867  790 Mojo Wheels
4Paul Cherry   11:09.44  775 Mojo Wheels
5Dave Strain   11:20.42  847 Colorado Power Sports
6484.31Clay Speas   Castle Rock, CO11:43.03 97386  599 Mojo Wheels
7Clay Rogers   11:46.11  827 Steamboat Gravity
8Parsifal Smith-Hill   14:10.42  836 Aeolian Solo
9H Plesner   14:23.84  630 Pedal Pushers
DNSScott Branney   Highlands Ranch, CODNS 237847  501 RPM / Yeti
DNSTony Del Grippo   Golden, CODNS 321520  649 aCOS / G-Force

Men - CAT 1 - 15-18

 Place Points NameCity, StateTime USAC #BibTeam
1286.29Nate Furbee   Los Osos, CA8:39.22 215754  611 Transition/Fox Shox/e*thirteen/Baywood
2297.87Austin Hackett Klaube   Dillon, CO8:39.92 294146  520 Wolf Rock Racing
3309.45Chase Nelson   Littleton, CO8:48.13 264517  524 Wolf Rock Racing
4321.03Teddy Benge   Carbondale, CO8:52.17 227700  579 Team Geronimo / Banshee Bikes
5332.61Paul McSparin   Frisco, CO8:52.54 294143  518 Wolf Rock Racing
6344.19Blake Weber   Parker, CO8:58.29 263904  786 aCOS - A Culture of Speed
7355.77Wiley Kaupas   Dillon, CO8:58.35 292907  522 Wolf Rock Racing
8367.35Harrison Ory   Denver, CO8:58.39 230690  704 Mojo Wheels
9378.93Kai Rogers   Steamboat Springs, CO9:04.54 321494  627 Steamboat Gravity
10390.51Jesse George   Dillon, CO9:07.53 293878  637 Wolf Rock Racing
11402.09Roy Benge   Carbondale, CO9:09.02 246529  580 Team Geronimo - Banshee Bikes
12413.67Joseph Crosby   Colorado Springs, CO9:19.22 280787  534 
13425.25Tanner Spence   Carbondale, CO9:27.17 246796  583 Banshee / Geronimo
14436.83Matthew Branney   Littleton, CO9:44.40 219366  507 RPM/Yeti
15448.41Sawyer Miller   Ruidoso, NM10:43.42 351294  667 Canyon Cycles
DNSRiley Farrar   Amarillo, TXDNS 281838  596 One Ghost Industries
DNSAlexander Willie   Longmont, CODNS 276946  762 SMBA

Men - CAT 1 - 19-29

 Place Points NameCity, StateTime USAC #BibTeam
1270.26colin pickett   Crested Butte , CO8:38.47 288103  758 Rocky Mountain Bicycles/Big Al's Bicycle Heaven
2286.55Douglas French   Rimrock, AZ8:50.69 293104  760 Mojo Wheels/ Spy Optic/ Royal Racing/ Fox Shox
3302.84Ryan Strang   Newbury Park, CA9:06.47 249533  756 Boney Mountain Coffee
4319.13Brian Faenza   Fairplay, CO9:18.40 194910  850 South Park MMJ
5335.42Martin Novak   Longmont, CO9:31.53 261097  769 TVR/ONE industries/Spy/Monster Energy
6351.71Noah Sears   Fruita, CO9:33.25 289720  624 MRP / Jett
7368.00Clayton Haskins   Boulder, CO9:33.57 301118  780 CU Cycling
8384.29Michael Allen   Littleton, CO9:34.19 299008  531 
9400.58Milan Geis   Sedona, AZ9:37.81 261329  766 Boot Doctors / Paragon / Mtn Village Bike Park
10416.87Trevor Haley   Evergreen, CO9:40.35 198616  680 Mojo Wheels
11433.16Chris Hale   Grand Junction, CO9:56.32 256493  573 
12449.45Parker Moore   Denver, CO10:03.79 232173  666 
13465.74Nathan Espinosa   Wheatridge, CO10:05.60 277527  750 Yeti Cycles
14482.03Joe Nicholson   Durango, CO10:09.60 255069  565 pedal the peaks/hayes bicycle group/monster energy/nema/gamut USA
15498.32John MacMurray   Durango, CO10:10.81 265526  640 Summit Velo
16514.61Taylor Pfohl   Golden, CO10:18.70 321704  678 Albritton outfitters
17530.90Ned Kajko   Steamboat Springs, CO10:39.54 200126  693 Steamboat Gravity Team
18547.19Phillip Chilimindris   Denver, CO12:25.48 158652  716 DeWALT
DNSBilly Parker   Denver, CODNS 230066  742 
DNSAndrew Dean   Boulder, CODNS 318778  763 The Fix
DNSSteven Flynn   Laramie, WYDNS 201488  856 

Men - CAT 1 - 30-39

 Place Points NameCity, StateTime USAC #BibTeam
1275.62Joseph Hanrahan   Salt Lake City, UT9:06.07 181547  738 Salvagetti
2295.77Martin Navarro   Aurora, CO9:06.88 192260  848 
3315.92Shawnee McGovern   Boulder, CO9:11.24 83560  723 SMAC Innovations
4336.07Scott Spangler   Albuquerque, NM9:16.78 259921  685 Bike Works Albuquerque
5356.22Ryan Knipe   Loveland, CO9:31.96 228890  788 Neverest
6376.37Matt Giaraffa   Denver, CO9:37.42 296345  540 Guerrilla Gravity
7396.52Gary Dye   Telluride, CO9:37.61 152235  768 Boot Doctors/Mountain Village Bike Park
8416.67Jason Wilber   Silverthorne, CO9:41.59 268353  798 aCOS
9436.82Blake Treadway   Grand Junction, CO9:55.92 296347  622 GRASSROOTS CYCLES
10456.97Scott Richards   Boulder, CO9:57.09 263444  730 Orbit Racing / SMAC Innovations
11477.12Rob Stevenson   Dillon, CO10:33.05 266351  846 
DNSChris Webb   Lakewood, CODNS 266715  533 aCOS / Smiling Moose Deli
DNSKerwin Miyashiro   Colorado Springs, CODNS 107285  639 
DNSJesse Townsend   Grand Junction, CODNS 288568  795 Grassroots Cycles / Sixsixone

Men - CAT 1 - 40-99

 Place Points NameCity, StateTime USAC #BibTeam
1336.81Curt Clemetson   Aspen, CO9:28.97 279045  530 
2355.52Robert Garcia   Dillon, CO9:33.60 12796  797 Wolf Rock Racing
3374.23Brandon Hendrix   Howard, CO9:45.22 317406  717 
4392.94James Gillespie   Golden, CO9:54.71 215566  686 Mojo Wheels
5411.65Johnnie Kavanaugh   Golden, CO10:36.64 75267  570 aCOS
DNSTodd Hood   Peyton, CODNS 270990  781 Mojo Wheels

Men - Pro

 Place Points NameCity, StateTime USAC #BibTeam
1Shaun O\'Connor   8:15.65  13 Yeti Fox Factory
2155.79Trevor Trinkino   Evergreen, CO8:19.09 242852  49 Yeti RPM
3160.15Nathaniel Hills   Dillon, CO8:24.40 201161  47 Wolf Rock Racing
4Jared Graves   8:24.41  12 Yeti Fox Factory
5Brandon Yrttiaho   8:26.99  14 Yeti Fox Shox Factory Race Team
6173.23Philip Wheeler   Colorado Springs, CO8:29.03 169103  55 Sram Santa Cruz
7177.59Naish Ulmer   Hood River, OR8:29.95 175253  45 Spy Optics/Rollic Dark Timbers/GO-RIDE.com
8181.95Joey Schusler   Boulder, CO8:30.51 201238  15 Yeti Fox Shox Factory Race Team
9186.31Michael Buell   Nederland, CO8:32.10 202502  Team Geronimo/Banshee Bikes
10190.67Christopher Shewmake   Denver, CO8:32.73 212815  44 Sram Santa Cruz
11195.03Blair Reed   Boulder, CO8:35.24 201148  39 Mojo Wheels/SMAC Innovations
12199.39Chris Boice   Albuquerque, NM8:35.48 215006  Yeti Cycles National Team
13203.75Leland Turner   Breckenridge, CO8:38.32 94880  10 aCOS / Marzocchi
14Javier Lopez Ruiz   8:40.51  57 Specialized Fox Mexico
15212.47Kevin Soller   Breckenridge, CO8:43.62 213616  61 Rocky Mountain Bikes/Sram
16216.83Szymon Kowalski   Lakewood, CO8:44.99 192143  46 Wolf Creek Racing / Trek Co-Op
17Drew Pautler   8:48.90  53 Primary/Sram/Trek
18225.55Craig Carlson   Aspen, CO8:49.10 266100  11 TVR
19229.91Jess Pedersen   Telluride , CO8:50.18 186232  43 Team Geronimo / Banshee Bikes
20234.27Daniel Goss   Telluride, CO8:51.48 174677  58 Mountain Village Bike Park/Paragon Sports
21238.63Matthew Russell   Fort Collins, CO8:52.66 217448  26 Road 34
22242.99Vince Sanchez   Albuquerque, NM8:55.31 31197  50 bike works
23247.35Andrew Templin   Frutia , CO8:56.89 261131  54 Canfield Brothers/Grassroots Cycles/DT Swiss/MRP/Dakine/Kili
24251.71Jonathan Card   Pembroke Pines, FL8:58.29 287932  32 Mojo Wheels
25256.07Samuel Stevens   Carbondale, CO9:00.96 217240  19 Aloha Mountain Cyclery
26260.43Ian Keller   Gilbert, AZ9:01.24 262213  28 
27264.79Timothy Sharp   Denver, CO9:01.65 194305  33 YAYCOBikes.com
28Mihai Moga   9:11.43  60 Sram Santa Cruz
29273.51Andrew Winohradsky   Denver, CO9:23.17 78432  59 Betterride.net
30277.87Brian Ballard   Broomall, PA9:28.36 2429  27 Mojo Wheels
31282.23Ben Furbee   Los Osos, CA13:29.01 215234  24 Transition/Fox Shox/e*thirteen/Baywood
32286.59Eric Landis   Grand Junction, CO16:17.20 288034  36 Grassroots Cycles / MRP/ MTB Strength Training/Transition/Marzocchi
DNSJames Ford   Littleton, CODNS 157072  20 Pedal Pushers Cyclery
DNSMichael Johnson   Santa Barbara, CADNS 261842  25 Red Baron Aviation/United Airlines/661/CR1/MSR/Steel Mx/Bell/Velo Pro Bikes
DNSDoug Ewer   Denver, CODNS 182791  37 SantaCruz/SRAM

Women - CAT 3 - 15-18

 Place Points NameCity, StateTime USAC #BibTeam
DNSClaire Hawks   DNS  577 
DNSKristy Anderson   DNS  605 

Women - CAT 2 - 15-18

 Place Points NameCity, StateTime USAC #BibTeam
1Kristen Mielke   10:29.99  845 
2Cara Montroy   10:50.27  707 Mojo Wheels
3Sienna Jensen   12:09.67  572 Pedal Pushers Cyclery
4Candace Sanders   12:49.67  759 Big Al's
5590.00Kristine Newton   Edwards, CO12:58.65 339126  859 Progressive Trail Design
DNSLindsay Yost   Brighton, CODNS 330222  525 Mojo Wheels

Women - CAT 1

 Place Points NameCity, StateTime USAC #BibTeam
1Soraya Khalje   Denver, CO11:25.91 247193  776 SMAC Innovations/ Orbit
2Beth Roberts   Moab, UT11:26.05 280245  521 Poison Spider Bicycles
DNSJourdan Baldwin   Fort Collins, CODNS 276667  547 CSU / Road 34
DNSLana Lawson   Palmer Lake, CODNS 284083  608 Neverest

Women - Pro

 Place Points NameCity, StateTime USAC #BibTeam
1Christen Boyer   Aspen, CO13:51.83 248742  23 One Ghost Industries
2Alisha Gibson   Durango, CO41:59.12 243237  31 2nd Ave Sports

Report missing or incorrect license numbers

Volkswagen
ShimanoSierra NevadaBonk BreakerSpyUSACDF
UCI USA Cycling is the official governing body for all disciplines of competitive cycling in the United States. The 501c3, membership-based organization aims both to achieve sustained success in international cycling competition and to grow competitive cycling in America while delivering an exceptional customer experience.
View Children's Online Privacy Protection Policy
US Olympic Committee